EW9274 Weather Reports


Display with metric or nautical units.
time (UTC)temp
F
wind
direction
speed
MPH
gust
MPH
rain 1hr
in
rain 24hr
in
rain mn
in
humidity
%
barometer
mb
20260509211520 66 298 10.0 18.0 0.00 0.00 0.00 34 1005.3
20260509211010 65 329 7.0 18.0 0.00 0.00 0.00 35 1005.4
20260509210510 66 273 8.0 17.0 0.00 0.00 0.00 35 1005.5
20260509210024 67 313 6.0 17.0 0.00 0.00 0.00 34 1005.3
20260509205511 67 313 7.0 17.0 0.00 0.00 0.00 34 1005.3
20260509205011 67 303 7.0 13.0 0.00 0.00 0.00 33 1005.1
20260509204523 66 200 5.0 17.0 0.00 0.00 0.00 34 1005.1
20260509204012 66 300 5.0 20.0 0.00 0.00 0.00 35 1005.0
20260509203514 66 182 6.0 20.0 0.00 0.00 0.00 35 1005.0
20260509203025 66 307 7.0 21.0 0.00 0.00 0.00 35 1004.9
20260509202510 66 325 5.0 21.0 0.00 0.00 0.00 35 1004.9
20260509202013 67 277 10.0 20.0 0.00 0.00 0.00 36 1004.9
20260509201504 66 312 8.0 21.0 0.00 0.00 0.00 36 1004.9
20260509201002 66 274 12.0 21.0 0.00 0.00 0.00 37 1004.8
20260509200503 66 201 3.0 21.0 0.00 0.00 0.00 38 1004.7
20260509200028 66 11 8.0 23.0 0.00 0.00 0.00 38 1004.5
20260509195509 66 309 9.0 26.0 0.00 0.00 0.00 38 1004.4
20260509194959 67 346 11.0 26.0 0.00 0.00 0.00 38 1004.4
20260509194530 68 49 6.0 17.0 0.00 0.00 0.00 35 1004.1
20260509194011 68 5 8.0 21.0 0.00 0.00 0.00 34 1003.9
20260509193512 68 328 10.0 19.0 0.00 0.00 0.00 32 1003.8
20260509193006 68 9 11.0 17.0 0.00 0.00 0.00 32 1003.6
20260509192504 67 274 6.0 21.0 0.00 0.00 0.00 34 1003.6
20260509192002 67 352 10.0 26.0 0.00 0.00 0.00 33 1003.4
20260509191505 68 239 12.0 26.0 0.00 0.00 0.00 33 1003.4
20260509191006 68 291 11.0 20.0 0.00 0.00 0.00 33 1003.4
20260509190514 69 259 11.0 22.0 0.00 0.00 0.00 34 1003.3
20260509190006 69 268 9.0 22.0 0.00 0.00 0.00 33 1003.2
20260509185511 68 263 11.0 27.0 0.00 0.00 0.00 34 1003.2
20260509185002 69 248 13.0 27.0 0.00 0.00 0.00 33 1003.3
20260509184522 69 235 12.0 26.0 0.00 0.00 0.00 32 1003.2
20260509184010 69 253 13.0 24.0 0.00 0.00 0.00 33 1003.1
20260509183503 68 279 12.0 24.0 0.00 0.00 0.00 33 1002.9
20260509183010 68 258 18.0 29.0 0.00 0.00 0.00 34 1003.2
20260509182507 68 237 16.0 29.0 0.00 0.00 0.00 34 1003.1
20260509182002 69 207 13.0 26.0 0.00 0.00 0.00 34 1003.2
20260509181511 68 277 9.0 24.0 0.00 0.00 0.00 34 1003.1
20260509181006 68 242 12.0 23.0 0.00 0.00 0.00 34 1003.0
20260509180503 68 300 12.0 20.0 0.00 0.00 0.00 33 1003.0
20260509180016 67 53 6.0 19.0 0.00 0.00 0.00 33 1003.0
20260509175508 66 256 7.0 19.0 0.00 0.00 0.00 33 1003.1
20260509175003 66 202 11.0 19.0 0.00 0.00 0.00 33 1003.1
20260509174528 66 223 8.0 21.0 0.00 0.00 0.00 33 1003.0
20260509174008 66 252 12.0 22.0 0.00 0.00 0.00 32 1003.1
20260509173503 68 269 8.0 28.0 0.00 0.00 0.00 32 1003.0
20260509173014 68 225 14.0 28.0 0.00 0.00 0.00 31 1003.1
20260509172504 67 281 11.0 20.0 0.00 0.00 0.00 32 1003.1
20260509172004 66 295 10.0 18.0 0.00 0.00 0.00 32 1003.1
20260509171515 67 221 10.0 21.0 0.00 0.00 0.00 31 1003.1
20260509171002 66 269 12.0 21.0 0.00 0.00 0.00 32 1003.2
20260509170503 66 244 12.0 21.0 0.00 0.00 0.00 32 1003.1
20260509170030 65 197 8.0 18.0 0.00 0.00 0.00 32 1003.1
20260509165503 66 352 10.0 18.0 0.00 0.00 0.00 31 1003.1
20260509165003 66 243 7.0 13.0 0.00 0.00 0.00 34 1003.1
20260509164519 65 311 8.0 18.0 0.00 0.00 0.00 33 1003.2
20260509164008 64 254 6.0 18.0 0.00 0.00 0.00 34 1003.2
20260509163504 64 272 7.0 19.0 0.00 0.00 0.00 34 1003.2
20260509163031 63 250 9.0 19.0 0.00 0.00 0.00 34 1003.3
20260509162503 63 260 9.0 18.0 0.00 0.00 0.00 33 1003.2
20260509162013 64 290 8.0 21.0 0.00 0.00 0.00 33 1003.3
20260509161523 64 250 8.0 21.0 0.00 0.00 0.00 33 1003.3
20260509161002 64 239 12.0 20.0 0.00 0.00 0.00 31 1003.3
20260509160504 64 271 8.0 15.0 0.00 0.00 0.00 32 1003.4
20260509160029 64 278 4.0 14.0 0.00 0.00 0.00 32 1003.5
20260509155504 64 242 6.0 15.0 0.00 0.00 0.00 32 1003.6
20260509155003 64 261 5.0 15.0 0.00 0.00 0.00 31 1003.6
20260509154523 64 310 6.0 13.0 0.00 0.00 0.00 30 1003.5
20260509154004 65 242 7.0 16.0 0.00 0.00 0.00 31 1003.5
20260509153505 65 245 8.0 16.0 0.00 0.00 0.00 32 1003.6
20260509153034 63 252 4.0 14.0 0.00 0.00 0.00 33 1003.6
20260509152503 64 171 7.0 13.0 0.00 0.00 0.00 32 1003.6
20260509152006 63 360 7.0 10.0 0.00 0.00 0.00 33 1003.5
20260509151526 62 236 4.0 10.0 0.00 0.00 0.00 37 1003.5
20260509151002 61 273 3.0 11.0 0.00 0.00 0.00 37 1003.4
20260509150506 61 331 6.0 11.0 0.00 0.00 0.00 38 1003.5
20260509150024 62 247 2.0 11.0 0.00 0.00 0.00 40 1003.3
20260509145513 61 248 6.0 11.0 0.00 0.00 0.00 40 1003.3
20260509145007 61 324 5.0 11.0 0.00 0.00 0.00 39 1003.2
20260509144532 62 331 3.0 11.0 0.00 0.00 0.00 40 1003.1
20260509144003 61 352 7.0 11.0 0.00 0.00 0.00 39 1003.1
20260509143511 62 331 6.0 10.0 0.00 0.00 0.00 39 1003.0
20260509143026 62 221 5.0 9.0 0.00 0.00 0.00 39 1002.8
20260509142505 61 210 4.0 9.0 0.00 0.00 0.00 40 1002.7
20260509142008 61 243 6.0 11.0 0.00 0.00 0.00 39 1002.7
20260509141504 61 277 4.0 13.0 0.00 0.00 0.00 41 1002.8
20260509141005 62 251 9.0 13.0 0.00 0.00 0.00 40 1002.9
20260509140511 62 169 4.0 11.0 0.00 0.00 0.00 42 1002.8
20260509140011 62 248 4.0 11.0 0.00 0.00 0.00 41 1002.7
20260509135505 62 249 5.0 11.0 0.00 0.00 0.00 41 1002.6
20260509135009 61 258 6.0 10.0 0.00 0.00 0.00 43 1002.7
20260509134508 61 251 6.0 10.0 0.00 0.00 0.00 43 1002.6
20260509134007 62 259 6.0 10.0 0.00 0.00 0.00 42 1002.6
20260509133507 62 300 4.0 9.0 0.00 0.00 0.00 45 1002.6
20260509133026 61 249 4.0 12.0 0.00 0.00 0.00 46 1002.7
20260509132507 61 258 3.0 12.0 0.00 0.00 0.00 45 1002.6
20260509132012 61 223 4.0 9.0 0.00 0.00 0.00 48 1002.7
20260509131511 60 193 4.0 13.0 0.00 0.00 0.00 49 1002.7
20260509131006 60 209 5.0 12.0 0.00 0.00 0.00 51 1002.4
20260509130511 60 55 3.0 14.0 0.00 0.00 0.00 52 1002.4
20260509130027 59 205 4.0 14.0 0.00 0.00 0.00 55 1002.4
20260509125505 58 240 7.0 12.0 0.00 0.00 0.00 55 1002.3
20260509125014 58 246 4.0 9.0 0.00 0.00 0.00 61 1002.2
20260509124538 58 250 5.0 13.0 0.00 0.00 0.00 61 1002.2
20260509124009 57 203 7.0 13.0 0.00 0.00 0.00 63 1002.4
20260509123513 57 239 6.0 12.0 0.00 0.00 0.00 66 1002.3
20260509123018 57 173 5.0 11.0 0.00 0.00 0.00 67 1002.3
20260509122509 56 201 2.0 10.0 0.00 0.00 0.00 71 1002.2
20260509122013 56 243 4.0 8.0 0.00 0.00 0.00 72 1002.3
20260509121523 55 337 2.0 6.0 0.00 0.00 0.00 74 1002.2
20260509121006 55 200 2.0 7.0 0.00 0.00 0.00 76 1002.2
20260509120510 55 261 2.0 7.0 0.00 0.00 0.00 76 1002.3
20260509120016 55 215 2.0 7.0 0.00 0.00 0.00 77 1002.4
20260509115505 55 284 1.0 9.0 0.00 0.00 0.00 78 1002.3
20260509115014 54 193 4.0 9.0 0.00 0.00 0.00 78 1002.3
20260509114520 54 185 3.0 7.0 0.00 0.00 0.00 79 1002.2
20260509114009 54 206 2.0 7.0 0.00 0.00 0.00 79 1002.0
20260509113510 53 227 2.0 8.0 0.00 0.00 0.00 79 1002.0
20260509113019 53 257 4.0 8.0 0.00 0.00 0.00 80 1002.0
20260509112508 53 173 3.0 11.0 0.00 0.00 0.00 80 1001.9
20260509112003 53 282 3.0 11.0 0.00 0.00 0.00 80 1001.8
20260509111503 53 239 3.0 7.0 0.00 0.00 0.00 80 1001.8
20260509111004 53 223 3.0 8.0 0.00 0.00 0.00 80 1001.7
20260509110505 53 246 4.0 9.0 0.00 0.00 0.00 80 1001.7
20260509110004 53 211 3.0 9.0 0.00 0.00 0.00 80 1001.8
20260509105503 53 235 3.0 9.0 0.00 0.00 0.00 79 1001.7
20260509105003 53 250 3.0 9.0 0.00 0.00 0.00 79 1001.5
20260509104508 53 227 3.0 10.0 0.00 0.00 0.00 79 1001.5
20260509104003 53 212 3.0 10.0 0.00 0.00 0.00 79 1001.5
20260509103503 54 229 4.0 10.0 0.00 0.00 0.00 79 1001.5
20260509103004 54 240 3.0 10.0 0.00 0.00 0.00 78 1001.4
20260509102503 54 252 2.0 8.0 0.00 0.00 0.00 78 1001.4
20260509102007 54 173 3.0 10.0 0.00 0.00 0.00 78 1001.2
20260509101510 54 229 4.0 10.0 0.00 0.00 0.00 77 1001.1
20260509101002 54 277 4.0 10.0 0.00 0.00 0.00 77 1001.1
20260509100505 54 212 4.0 11.0 0.00 0.00 0.00 77 1001.1
20260509100004 54 258 3.0 11.0 0.00 0.00 0.00 76 1001.2
20260509095504 55 232 4.0 14.0 0.00 0.00 0.00 76 1001.2
20260509095008 55 212 4.0 14.0 0.00 0.00 0.00 75 1001.3
20260509094503 55 217 5.0 14.0 0.00 0.00 0.00 75 1001.4
20260509094004 55 163 6.0 14.0 0.00 0.00 0.00 74 1001.5
20260509093508 55 249 5.0 14.0 0.00 0.00 0.00 74 1001.6
20260509093005 55 186 6.0 14.0 0.00 0.00 0.00 74 1001.7
20260509092504 55 289 6.0 13.0 0.00 0.00 0.00 74 1001.6
20260509092006 55 229 3.0 14.0 0.00 0.00 0.00 74 1001.6
20260509091509 55 273 5.0 14.0 0.00 0.00 0.00 74 1001.6
20260509091003 55 304 3.0 11.0 0.00 0.00 0.00 74 1001.6
20260509090506 55 174 4.0 13.0 0.00 0.00 0.00 74 1001.6
20260509090006 55 213 5.0 13.0 0.00 0.00 0.00 74 1001.5
20260509085505 55 215 6.0 13.0 0.00 0.00 0.00 74 1001.6
20260509085006 55 213 6.0 13.0 0.00 0.00 0.00 74 1001.6
20260509084508 55 201 4.0 10.0 0.00 0.00 0.00 74 1001.5
20260509084005 55 234 5.0 10.0 0.00 0.00 0.00 74 1001.5
20260509083508 55 232 4.0 10.0 0.00 0.00 0.00 74 1001.5
20260509083027 55 243 4.0 11.0 0.00 0.00 0.00 74 1001.5
20260509082507 54 215 3.0 11.0 0.00 0.00 0.00 74 1001.6
20260509082010 54 277 3.0 8.0 0.00 0.00 0.00 74 1001.6
20260509081512 54 213 2.0 5.0 0.00 0.00 0.00 74 1001.6
20260509081006 54 202 2.0 7.0 0.00 0.00 0.00 73 1001.6
20260509080507 55 253 3.0 11.0 0.00 0.00 0.00 73 1001.5
20260509080012 55 208 2.0 11.0 0.00 0.00 0.00 73 1001.6
20260509075507 55 221 2.0 7.0 0.00 0.00 0.00 72 1001.6
20260509075003 55 236 3.0 9.0 0.00 0.00 0.00 72 1001.5
20260509074511 55 229 3.0 9.0 0.00 0.00 0.00 72 1001.6
20260509074006 55 202 4.0 8.0 0.00 0.00 0.00 71 1001.7
20260509073503 55 202 3.0 6.0 0.00 0.00 0.00 71 1001.6
20260509073023 55 215 2.0 8.0 0.00 0.00 0.00 70 1001.7
20260509072507 55 209 3.0 8.0 0.00 0.00 0.00 70 1001.8
20260509072004 55 209 2.0 7.0 0.00 0.00 0.00 69 1001.7
20260509071515 55 217 4.0 7.0 0.00 0.00 0.00 68 1001.8
20260509071008 56 253 3.0 8.0 0.00 0.00 0.00 68 1001.8
20260509070503 56 242 3.0 8.0 0.00 0.00 0.00 67 1001.9
20260509070015 56 182 3.0 7.0 0.00 0.00 0.00 67 1002.0
20260509065506 56 210 3.0 7.0 0.00 0.00 0.00 67 1002.1
20260509065003 56 131 3.0 9.0 0.00 0.00 0.00 66 1002.2
20260509064528 56 227 3.0 9.0 0.00 0.00 0.00 66 1002.3
20260509064007 55 229 3.0 6.0 0.00 0.00 0.00 65 1002.3
20260509063505 55 205 3.0 7.0 0.00 0.00 0.00 65 1002.4
20260509063022 55 238 3.0 8.0 0.00 0.00 0.00 64 1002.4
20260509062511 55 207 3.0 8.0 0.00 0.00 0.00 65 1002.5
20260509062007 54 188 3.0 7.0 0.00 0.00 0.00 64 1002.7
20260509061523 54 195 3.0 7.0 0.00 0.00 0.00 64 1002.9
20260509061009 54 254 3.0 7.0 0.00 0.00 0.00 64 1002.9
20260509060502 54 225 2.0 8.0 0.00 0.00 0.00 63 1003.0
20260509060020 54 333 2.0 8.0 0.00 0.00 0.00 63 1003.0
20260509055506 54 237 1.0 6.0 0.00 0.00 0.00 63 1003.0
20260509055004 54 219 2.0 6.0 0.00 0.00 0.00 64 1003.0
20260509054523 54 198 2.0 5.0 0.00 0.00 0.00 64 1003.1
20260509054009 54 241 2.0 5.0 0.00 0.00 0.00 64 1003.1
20260509053504 54 242 1.0 5.0 0.00 0.00 0.00 65 1003.3
20260509053031 54 182 1.0 4.0 0.00 0.00 0.00 65 1003.4
20260509052510 54 182 2.0 5.0 0.00 0.00 0.00 65 1003.4
20260509052005 53 173 2.0 5.0 0.00 0.00 0.00 67 1003.6
20260509051526 53 257 0.0 2.0 0.00 0.00 0.00 66 1003.8
20260509051011 53 225 0.0 2.0 0.00 0.00 0.00 67 1003.8
20260509050503 53 225 0.0 3.0 0.00 0.00 0.00 67 1003.7
20260509050026 53 225 0.0 3.0 0.00 0.00 0.00 67 1003.8
20260509045503 53 225 1.0 3.0 0.00 0.00 0.00 67 1004.0
20260509045006 53 246 0.0 2.0 0.00 0.00 0.00 67 1003.9
20260509044526 53 246 0.0 2.0 0.00 0.00 0.00 67 1003.7
20260509044003 53 241 0.0 6.0 0.00 0.00 0.00 67 1003.8
20260509043505 53 246 1.0 6.0 0.00 0.00 0.00 67 1003.7
20260509043030 53 208 1.0 3.0 0.00 0.00 0.00 67 1003.7
20260509042503 53 257 0.0 3.0 0.00 0.00 0.00 67 1003.9
20260509042010 53 257 0.0 3.0 0.00 0.00 0.00 67 1003.9
20260509041533 52 285 1.0 3.0 0.00 0.00 0.00 67 1004.0
20260509041003 52 223 2.0 3.0 0.00 0.00 0.00 67 1003.9
20260509040506 52 243 1.0 3.0 0.00 0.00 0.00 67 1003.7
20260509040031 52 227 0.0 3.0 0.00 0.00 0.00 67 1003.7
20260509035504 52 264 0.0 3.0 0.00 0.00 0.00 67 1003.7
20260509035005 52 226 1.0 3.0 0.00 0.00 0.00 66 1003.7
20260509034537 52 218 0.0 2.0 0.00 0.00 0.00 66 1003.7
20260509034003 52 190 0.0 3.0 0.00 0.00 0.00 66 1003.9
20260509033508 53 204 0.0 3.0 0.00 0.00 0.00 66 1004.0
20260509033027 53 194 0.0 3.0 0.00 0.00 0.00 65 1004.0
20260509032507 53 265 0.0 3.0 0.00 0.00 0.00 65 1004.0
20260509032009 53 190 1.0 2.0 0.00 0.00 0.00 65 1004.1
20260509031547 53 244 1.0 3.0 0.00 0.00 0.00 65 1004.1
20260509031006 53 190 1.0 3.0 0.00 0.00 0.00 64 1004.0
20260509030515 53 219 0.0 2.0 0.00 0.00 0.00 64 1004.1
20260509030054 53 210 1.0 2.0 0.00 0.00 0.00 63 1004.3
20260509025512 53 246 0.0 5.0 0.00 0.00 0.00 63 1004.2
20260509025010 54 209 1.0 5.0 0.00 0.00 0.00 62 1004.3
20260509024535 54 179 1.0 4.0 0.00 0.00 0.00 62 1004.3
20260509024006 54 184 1.0 6.0 0.00 0.00 0.00 62 1004.4
20260509023509 54 199 0.0 7.0 0.00 0.00 0.00 61 1004.4
20260509023034 54 186 2.0 8.0 0.00 0.00 0.00 61 1004.3
20260509022506 54 151 2.0 8.0 0.00 0.00 0.00 61 1004.4
20260509022013 55 198 3.0 8.0 0.00 0.00 0.00 60 1004.4
20260509021508 55 190 0.0 4.0 0.00 0.00 0.00 60 1004.4
20260509021004 55 171 1.0 4.0 0.00 0.00 0.00 59 1004.4
20260509020502 55 250 2.0 4.0 0.00 0.00 0.00 59 1004.4
20260509020007 55 140 0.0 5.0 0.00 0.00 0.00 59 1004.5
20260509015503 56 229 0.0 5.0 0.00 0.00 0.00 58 1004.6
20260509015006 56 169 1.0 4.0 0.00 0.00 0.00 57 1004.6
20260509014510 56 155 2.0 4.0 0.00 0.00 0.00 56 1004.6
20260509014005 56 196 1.0 3.0 0.00 0.00 0.00 56 1004.6
20260509013503 57 288 1.0 7.0 0.00 0.00 0.00 55 1004.6
20260509013009 57 167 2.0 7.0 0.00 0.00 0.00 54 1004.6
20260509012505 57 213 1.0 7.0 0.00 0.00 0.00 53 1004.7
20260509012005 57 248 1.0 7.0 0.00 0.00 0.00 53 1004.6
20260509011510 58 180 2.0 6.0 0.00 0.00 0.00 52 1004.6
20260509011004 58 187 1.0 6.0 0.00 0.00 0.00 51 1004.6
20260509010503 58 152 3.0 8.0 0.00 0.00 0.00 50 1004.7
20260509010008 58 194 3.0 8.0 0.00 0.00 0.00 49 1004.7
20260509005504 59 154 1.0 8.0 0.00 0.00 0.00 48 1004.8
20260509005003 59 142 2.0 8.0 0.00 0.00 0.00 47 1004.8
20260509004513 59 221 3.0 11.0 0.00 0.00 0.00 46 1004.8
20260509004003 59 139 3.0 11.0 0.00 0.00 0.00 45 1004.9
20260509003504 60 194 5.0 11.0 0.00 0.00 0.00 44 1004.9
20260509003011 60 151 2.0 11.0 0.00 0.00 0.00 42 1004.9
20260509002503 60 192 6.0 11.0 0.00 0.00 0.00 38 1004.8
20260509002003 61 152 2.0 8.0 0.00 0.00 0.00 38 1004.6
20260509001513 61 133 2.0 10.0 0.00 0.00 0.00 37 1004.6
20260509001004 62 241 3.0 10.0 0.00 0.00 0.00 36 1004.6
20260509000503 63 168 2.0 10.0 0.00 0.00 0.00 34 1004.7
20260509000010 64 71 2.0 9.0 0.00 0.00 0.00 33 1004.7
20260508235505 67 121 2.0 8.0 0.00 0.00 0.00 26 1004.7
20260508235006 67 172 3.0 10.0 0.00 0.00 0.00 26 1004.5
20260508234514 67 220 4.0 10.0 0.00 0.00 0.00 26 1004.6
20260508234004 68 200 5.0 10.0 0.00 0.00 0.00 26 1004.6
20260508233504 68 223 4.0 8.0 0.00 0.00 0.00 26 1004.7
20260508233012 68 282 5.0 10.0 0.00 0.00 0.00 25 1004.8
20260508232503 68 208 3.0 14.0 0.00 0.00 0.00 25 1004.9
20260508232003 68 212 7.0 13.0 0.00 0.00 0.00 25 1005.0
20260508231514 68 190 3.0 17.0 0.00 0.00 0.00 25 1005.1
20260508231004 68 248 7.0 17.0 0.00 0.00 0.00 24 1005.1
20260508230503 67 265 6.0 19.0 0.00 0.00 0.00 25 1005.1
20260508230013 67 208 10.0 19.0 0.00 0.00 0.00 24 1005.3
20260508225504 67 130 9.0 16.0 0.00 0.00 0.00 25 1005.3
20260508225007 67 252 4.0 11.0 0.00 0.00 0.00 25 1005.2
20260508224511 67 259 4.0 11.0 0.00 0.00 0.00 25 1005.3
20260508224003 67 186 5.0 21.0 0.00 0.00 0.00 24 1005.3
20260508223504 68 221 9.0 21.0 0.00 0.00 0.00 24 1005.4
20260508223034 68 207 3.0 12.0 0.00 0.00 0.00 24 1005.2
20260508222502 68 230 3.0 14.0 0.00 0.00 0.00 24 1005.3
20260508222003 68 209 6.0 15.0 0.00 0.00 0.00 23 1005.3
20260508221512 68 250 7.0 16.0 0.00 0.00 0.00 24 1005.3
20260508221006 68 250 11.0 16.0 0.00 0.00 0.00 23 1005.5
20260508220507 69 257 7.0 14.0 0.00 0.00 0.00 23 1005.5
20260508220014 69 209 6.0 20.0 0.00 0.00 0.00 23 1005.5
20260508215511 69 252 6.0 20.0 0.00 0.00 0.00 23 1005.6
20260508215004 69 191 7.0 16.0 0.00 0.00 0.00 23 1005.6
20260508214515 69 246 6.0 14.0 0.00 0.00 0.00 24 1005.5
20260508214006 68 276 9.0 17.0 0.00 0.00 0.00 22 1005.6
20260508213503 69 163 5.0 17.0 0.00 0.00 0.00 23 1005.5
20260508213022 68 255 8.0 17.0 0.00 0.00 0.00 22 1005.6
20260508212507 68 211 6.0 18.0 0.00 0.00 0.00 22 1005.6
20260508212007 69 270 6.0 18.0 0.00 0.00 0.00 21 1005.7